Location: Alsip
(41.6689°N, 87.7387°W)
Time: 13:58:28
(UTC+00:00)

Cosmos 1992 Rocket - Pass Details

Date: 14 July 2020
Orbit: 758 x 766 km, 74.0° (Epoch: 05 August)

Event Time Altitude Azimuth Distance (km) Brightness Sun altitude
Rises 06:08:44 0° 344° (NNW) 3,243 8.4 -26.7°
Reaches altitude 10° 06:11:10 10° 348° (NNW) 2,313 7.4 -26.6°
Maximum altitude 06:16:20 57° 67° (ENE) 898 4.4 -26.6°
Enters shadow 06:16:57 54° 96° (E) 932 4.3 -26.6°
